Alpine, TX

4:47 PM CST on February 24, 2017 (GMT -0600)
Alpine

Weather History for KE38 - October, 2013

Change the Weather History Date:

Monday, October 7, 2013

  Actual Average (KMRF) Record (KMRF)
Temperature  
Mean Temperature 58 °F -  
Max Temperature 79 °F 74 °F 87 °F (2011)
Min Temperature 39 °F 46 °F 33 °F (2013)
Degree Days  
Heating Degree Days 6    
Growing Degree Days 8 (Base 50)    
Moisture  
Dew Point 19 °F    
Average Humidity 24    
Maximum Humidity 49    
Minimum Humidity 9    
Precipitation  
Precipitation 0.00 in - - ()
Sea Level Pressure  
Sea Level Pressure 30.30 in    
Wind  
Wind Speed 7 mph (South)    
Max Wind Speed 12 mph    
Max Gust Speed 22 mph    
Visibility 10 miles    
Events      
Averages and records for this station are not official NWS values.
T = Trace of Precipitation, MM = Missing Value Source: NWS Daily Summary

Daily Weather History Graph

Daily Weather History Graph

Search for Another Location

Airport or City:

Trip Planner

Search our weather history database for the weather conditions in past years. The results will help you decide how hot, cold, wet, or windy it might be!

Date:

Astronomy

Oct. 07, 2013 Rise Set
Actual Time 7:51 AM CDT 7:32 PM CDT
Civil Twilight 7:27 AM CDT 7:56 PM CDT
Nautical Twilight 7:00 AM CDT 8:24 PM CDT
Astronomical Twilight 6:32 AM CDT 8:52 PM CDT
Moon 10:31 AM CDT (10/7) 9:33 PM CDT (10/7)
Length of Visible Light 12h 28m
Length of Day
11h 40m
Waxing Crescent, 9% of the Moon is Illuminated
Oct 7
Waxing Crescent
Oct 11
First Quarter
Oct 18
Full
Oct 26
Last Quarter
Nov 3
New

Hourly Weather History & Observations

Time (CDT) Temp. Windchill Dew Point Humidity Pressure Visibility Wind Dir Wind Speed Gust Speed Precip Events Conditions
12:15 AM 43.3 °F 39.9 °F 21.2 °F 41% 30.34 in 10.0 mi SW 5.8 mph - N/A   Clear
12:35 AM 44.2 °F 40.3 °F 21.7 °F 41% 30.34 in 10.0 mi SW 6.9 mph - N/A   Clear
12:55 AM 44.8 °F 41.0 °F 21.7 °F 40% 30.34 in 10.0 mi SW 6.9 mph - N/A   Clear
1:15 AM 43.5 °F 39.4 °F 21.9 °F 42% 30.34 in 10.0 mi WSW 6.9 mph - N/A   Clear
1:35 AM 45.5 °F 41.8 °F 21.7 °F 39% 30.34 in 10.0 mi SW 6.9 mph - N/A   Clear
1:55 AM 43.3 °F 39.9 °F 21.6 °F 42% 30.34 in 10.0 mi SSW 5.8 mph - N/A   Clear
2:15 AM 42.3 °F 38.6 °F 21.9 °F 44% 30.35 in 10.0 mi SW 5.8 mph - N/A   Clear
2:35 AM 42.6 °F 38.4 °F 21.9 °F 44% 30.35 in 10.0 mi WSW 6.9 mph - N/A   Clear
2:55 AM 43.9 °F 39.9 °F 22.1 °F 42% 30.35 in 10.0 mi SW 6.9 mph - N/A   Clear
3:15 AM 45.5 °F 41.3 °F 21.9 °F 39% 30.34 in 10.0 mi WSW 8.1 mph - N/A   Clear
3:35 AM 44.1 °F 39.5 °F 22.1 °F 42% 30.34 in 10.0 mi WSW 8.1 mph - N/A   Clear
3:55 AM 45.1 °F 39.9 °F 21.9 °F 40% 30.34 in 10.0 mi WSW 10.4 mph - N/A   Clear
4:15 AM 44.4 °F 39.5 °F 22.1 °F 41% 30.34 in 10.0 mi WSW 9.2 mph - N/A   Clear
4:35 AM 45.0 °F 39.7 °F 22.6 °F 41% 30.33 in 10.0 mi WSW 10.4 mph - N/A   Clear
4:55 AM 44.1 °F 39.0 °F 22.8 °F 43% 30.33 in 10.0 mi WSW 9.2 mph - N/A   Clear
5:15 AM 44.4 °F 39.0 °F 22.8 °F 43% 30.32 in 10.0 mi SW 10.4 mph - N/A   Clear
5:35 AM 46.0 °F 41.4 °F 22.8 °F 40% 30.33 in 10.0 mi WSW 9.2 mph - N/A   Clear
5:55 AM 43.0 °F 38.2 °F 22.6 °F 45% 30.33 in 10.0 mi SW 8.1 mph - N/A   Clear
6:15 AM 43.2 °F 39.7 °F 22.3 °F 44% 30.34 in 10.0 mi WSW 5.8 mph - N/A   Clear
6:35 AM 39.9 °F 35.8 °F 22.1 °F 49% 30.34 in 10.0 mi WSW 5.8 mph - N/A   Clear
6:55 AM 42.1 °F 36.6 °F 22.5 °F 46% 30.34 in 10.0 mi SW 9.2 mph - N/A   Clear
7:15 AM 43.7 °F 39.7 °F 22.5 °F 43% 30.34 in 10.0 mi WSW 6.9 mph - N/A   Clear
7:35 AM 40.8 °F 35.0 °F 22.1 °F 47% 30.34 in 10.0 mi WSW 9.2 mph - N/A   Clear
7:55 AM 44.2 °F 40.3 °F 22.1 °F 42% 30.34 in 10.0 mi SW 6.9 mph - N/A   Clear
8:15 AM 46.0 °F 41.4 °F 22.1 °F 39% 30.35 in 10.0 mi SW 9.2 mph - N/A   Clear
8:35 AM 49.1 °F - 22.5 °F 35% 30.35 in 10.0 mi SSW 8.1 mph - N/A   Clear
8:55 AM 53.1 °F - 23.0 °F 31% 30.36 in 10.0 mi SSW 5.8 mph - N/A   Clear
9:15 AM 57.4 °F - 23.4 °F 27% 30.36 in 10.0 mi SSW 4.6 mph - N/A   Clear
9:35 AM 61.0 °F - 23.2 °F 24% 30.35 in 10.0 mi Calm Calm - N/A   Clear
9:55 AM 63.3 °F - 20.3 °F 19% 30.36 in 10.0 mi Calm Calm - N/A   Clear
10:15 AM 65.8 °F - 18.9 °F 17% 30.36 in 10.0 mi Calm Calm - N/A   Clear
10:35 AM 67.8 °F - 16.5 °F 14% 30.36 in 10.0 mi Calm Calm - N/A   Clear
10:55 AM 69.6 °F - 15.6 °F 13% 30.36 in 10.0 mi Calm Calm - N/A   Clear
11:15 AM 71.8 °F - 16.2 °F 12% 30.35 in 10.0 mi ESE 4.6 mph - N/A   Clear
11:35 AM 72.3 °F - 16.7 °F 12% 30.35 in 10.0 mi East 3.5 mph - N/A   Clear
11:55 AM 72.9 °F - 18.3 °F 13% 30.34 in 10.0 mi SE 3.5 mph - N/A   Clear
12:15 PM 74.8 °F - 19.6 °F 13% 30.34 in 10.0 mi SSE 3.5 mph 21.9 mph N/A   Clear
12:35 PM 74.5 °F - 16.5 °F 11% 30.34 in 10.0 mi South 5.8 mph 17.3 mph N/A   Clear
12:55 PM 76.1 °F - 17.8 °F 11% 30.33 in 10.0 mi SSE 6.9 mph - N/A   Clear
1:15 PM 76.3 °F - 17.6 °F 11% 30.33 in 10.0 mi East 4.6 mph - N/A   Clear
1:35 PM 76.5 °F - 16.5 °F 10% 30.32 in 10.0 mi SE 8.1 mph - N/A   Clear
1:55 PM 77.2 °F - 16.5 °F 10% 30.31 in 10.0 mi East 6.9 mph - N/A   Clear
2:15 PM 76.6 °F - 17.4 °F 11% 30.30 in 10.0 mi SE 9.2 mph - N/A   Clear
2:35 PM 77.5 °F - 17.1 °F 10% 30.29 in 10.0 mi ESE 9.2 mph - N/A   Clear
2:55 PM 76.8 °F - 16.9 °F 10% 30.28 in 10.0 mi SE 6.9 mph - N/A   Clear
3:15 PM 77.9 °F - 16.5 °F 10% 30.27 in 10.0 mi SSE 9.2 mph - N/A   Clear
3:35 PM 78.3 °F - 17.6 °F 10% 30.26 in 10.0 mi SSE 8.1 mph - N/A   Clear
3:55 PM 78.4 °F - 17.1 °F 10% 30.25 in 10.0 mi South 6.9 mph - N/A   Clear
4:15 PM 78.8 °F - 17.1 °F 10% 30.25 in 10.0 mi SE 6.9 mph - N/A   Clear
4:35 PM 78.4 °F - 16.3 °F 10% 30.25 in 10.0 mi South 8.1 mph - N/A   Clear
4:55 PM 78.4 °F - 16.0 °F 10% 30.24 in 10.0 mi ESE 8.1 mph - N/A   Clear
5:15 PM 78.1 °F - 14.2 °F 9% 30.24 in 10.0 mi SSE 6.9 mph - N/A   Clear
5:35 PM 77.9 °F - 14.4 °F 9% 30.23 in 10.0 mi ESE 9.2 mph - N/A   Clear
5:55 PM 77.7 °F - 14.9 °F 9% 30.23 in 10.0 mi SSE 8.1 mph - N/A   Clear
6:15 PM 76.6 °F - 14.2 °F 9% 30.23 in 10.0 mi SSE 3.5 mph - N/A   Clear
6:35 PM 76.1 °F - 13.8 °F 9% 30.23 in 10.0 mi East 6.9 mph - N/A   Clear
6:55 PM 74.5 °F - 15.6 °F 11% 30.23 in 10.0 mi East 9.2 mph - N/A   Clear
7:15 PM 72.3 °F - 15.4 °F 11% 30.23 in 10.0 mi SSE 9.2 mph - N/A   Clear
7:35 PM 68.9 °F - 16.2 °F 13% 30.24 in 10.0 mi SE 8.1 mph - N/A   Clear
7:55 PM 65.5 °F - 16.5 °F 15% 30.24 in 10.0 mi SSE 3.5 mph - N/A   Clear
8:15 PM 64.4 °F - 15.6 °F 15% 30.24 in 10.0 mi South 4.6 mph - N/A   Clear
8:35 PM 60.3 °F - 15.6 °F 18% 30.24 in 10.0 mi South 8.1 mph - N/A   Clear
8:55 PM 60.1 °F - 14.5 °F 17% 30.24 in 7.0 mi South 8.1 mph - N/A   Clear
9:15 PM 60.8 °F - 14.0 °F 16% 30.25 in 10.0 mi South 6.9 mph - N/A   Clear
9:35 PM 61.0 °F - 13.8 °F 16% 30.25 in 10.0 mi South 9.2 mph - N/A   Clear
9:55 PM 62.4 °F - 14.0 °F 15% 30.25 in 10.0 mi South 11.5 mph - N/A   Clear
10:15 PM 63.0 °F - 14.9 °F 15% 30.25 in 10.0 mi South 9.2 mph - N/A   Clear
10:35 PM 61.9 °F - 16.9 °F 17% 30.26 in 10.0 mi South 9.2 mph - N/A   Clear
10:55 PM 61.3 °F - 20.5 °F 21% 30.26 in 10.0 mi South 6.9 mph - N/A   Clear
11:15 PM 59.5 °F - 20.7 °F 22% 30.26 in 10.0 mi SSW 3.5 mph - N/A   Clear
11:35 PM 57.2 °F - 20.7 °F 24% 30.25 in 10.0 mi SSW 5.8 mph - N/A   Clear
11:55 PM 57.6 °F - 21.7 °F 25% 30.25 in 10.0 mi SSW 6.9 mph - N/A   Clear